Flag for Canada Weather past 2 weeks in Oshawa, Ontario, Canada

Now
73 °F

Partly sunny.


Feels Like: 76 °F
Forecast: 60 / 75 °F
Wind: 14 mph from Southwest

Location: Toronto Buttonville

Current Time: May 27, 2015 at 10:13:30 AM

Latest Report: May 27, 2015 at 9:00 AM


Visibility: 13 mi

Pressure: 29.96 "Hg

Humidity: 69%

Dew point: 63 °F

Location of OshawaLocation

Historic Weather in Oshawa — Graph

°F

Oshawa temperature yesterday

Maximum temperature yesterday: 82 °F (at 12:00 PM)
Minimum temperature yesterday: 68 °F (at 3:00 AM)
Average temperature yesterday: 75 °F

Past Weeks' High & Low Weather Summary

 TemperatureHumidityPressure
High82 °F (May 18, 2:00 PM)93% (May 13, 6:00 AM)30.49 "Hg (May 13, 6:00 AM)
Low37 °F (May 20, 6:00 AM)19% (May 23, 4:00 PM)29.80 "Hg (May 12, 9:00 AM)
Average60 °F55%30.10 "Hg
* Reported May 12 9:00 AM — May 27 9:00 AM, Oshawa, Weather by CustomWeather, © 2015

Note: Actual official high and low records may vary slightly from our data, if they occured in-between our weather recording intervals... More about our weather records

Advertising

Oshawa weather history for previous 24 hours

 ConditionsComfort  
Time TempWeatherWind HumidityBarometerVisibility
9:00 AM
Wed, May 27
73 °FPartly sunny.14 mph69%29.96 "Hg13 mi
8:00 AM72 °FPartly sunny.9 mph73%29.95 "Hg13 mi
7:00 AM70 °FCloudy.7 mph78%29.93 "Hg15 mi
6:00 AM68 °FMostly cloudy.7 mph83%29.92 "Hg15 mi
5:00 AM70 °FPassing clouds.10 mph78%29.91 "Hg15 mi
4:00 AM70 °FPassing clouds.9 mph78%29.90 "Hg15 mi
3:00 AM70 °FPassing clouds.7 mph78%29.90 "Hg15 mi
2:00 AM66 °FPartly cloudy.5 mph78%29.91 "Hg15 mi
1:00 AM64 °FPassing clouds.6 mph83%29.94 "Hg15 mi
12:00 AM66 °FPassing clouds.7 mph78%29.95 "Hg15 mi
11:00 PM
Tue, May 26
72 °FPassing clouds.9 mph73%29.95 "Hg15 mi
10:00 PM73 °FPassing clouds.9 mph69%29.96 "Hg15 mi
9:00 PM75 °FScattered clouds.10 mph65%29.94 "Hg15 mi
8:00 PM79 °FPartly sunny.10 mph58%29.95 "Hg15 mi
7:00 PM81 °FScattered clouds.13 mph54%29.95 "Hg15 mi
6:00 PM82 °FPartly sunny.15 mph51%29.96 "Hg15 mi
5:00 PM82 °FPartly sunny.13 mph55%29.98 "Hg15 mi
4:00 PM82 °FPartly sunny.17 mph51%30.01 "Hg15 mi
3:00 PM81 °FPartly sunny.16 mph58%30.02 "Hg15 mi
2:00 PM82 °FPartly sunny.15 mph55%30.03 "Hg15 mi
1:00 PM81 °FPartly sunny.15 mph58%30.04 "Hg12 mi
12:00 PM82 °FBroken clouds.14 mph55%30.04 "Hg12 mi
11:00 AM81 °FPartly sunny.8 mph51%30.05 "Hg15 mi
10:00 AM77 °FPartly sunny.10 mph61%30.06 "Hg12 mi
Weather by CustomWeather, © 2015

See weather overviewHow to use our weather pages